Location: Newark
(46.7636°N, 1.8358°W)
Time: 21:06:24
(UTC+00:00)

Vanguard 2 Rocket - All Passes

Search period start: 13 October 2019 00:00
Search period end: 23 October 2019 00:00
Orbit: 554 x 3326 km, 32.9° (Epoch: 12 October)

Date Brightness Start Highest point End Pass type
(mag) Time Alt. Az. Time Alt. Az. Time Alt. Az.
13 Oct - 08:29:01 10° S 08:40:37 19° SE 08:51:44 10° ESE daylight
13 Oct - 10:38:27 10° SW 10:55:48 38° SSE 11:09:54 10° E daylight
13 Oct - 12:53:47 10° WSW 13:11:41 48° S 13:23:49 10° ESE daylight
13 Oct - 15:11:50 10° W 15:26:23 39° SSW 15:35:34 10° SE daylight
13 Oct - 17:32:11 10° WSW 17:38:40 16° SW 17:43:41 10° S daylight
14 Oct - 07:33:34 10° SSE 07:40:01 12° SE 07:46:29 10° ESE daylight
14 Oct - 09:38:19 10° SSW 09:54:35 32° SSE 10:09:05 10° E daylight
14 Oct - 11:52:03 10° SW 12:10:32 47° S 12:24:09 10° ESE daylight
14 Oct - 14:09:20 10° WSW 14:26:02 45° SSW 14:36:48 10° SE daylight
14 Oct - 16:28:36 10° W 16:39:23 25° SW 16:46:47 10° SSE daylight
15 Oct - 08:39:07 10° S 08:53:31 26° SE 09:07:27 10° E daylight
15 Oct - 10:50:52 10° SW 11:09:09 44° SSE 11:24:03 10° E daylight
15 Oct - 13:07:03 10° WSW 13:25:13 49° S 13:37:38 10° ESE daylight
15 Oct - 15:25:37 10° W 15:39:39 34° SSW 15:48:51 10° SSE daylight
15 Oct - 17:49:20 10° WSW 17:51:28 11° SW 17:53:25 10° SW visible
16 Oct - 07:41:11 10° S 07:52:44 20° SE 08:04:35 10° E daylight
16 Oct - 09:50:20 10° SW 10:07:45 40° SSE 10:23:27 10° E daylight
16 Oct - 12:05:09 10° WSW 12:24:01 50° S 12:38:02 10° ESE daylight
16 Oct - 14:22:56 10° W 14:39:24 42° SSW 14:50:19 10° SE daylight
16 Oct - 16:43:15 10° W 16:52:17 19° SW 16:59:01 10° S daylight
17 Oct - 06:45:56 10° SSE 06:52:18 13° SE 06:58:56 10° ESE daylight
17 Oct - 08:50:33 10° SSW 09:06:28 34° SSE 09:22:11 10° E daylight
17 Oct - 11:03:44 10° SW 11:22:33 49° S 11:38:01 10° ESE daylight
17 Oct - 13:20:31 10° WSW 13:38:40 47° SSW 13:51:17 10° SE daylight
17 Oct - 15:39:40 10° W 15:52:42 28° SW 16:01:43 10° SSE daylight
18 Oct - 07:51:40 10° S 08:05:28 27° SE 08:20:07 10° E daylight
18 Oct - 10:02:54 10° SW 10:20:58 46° SSE 10:37:30 10° E daylight
18 Oct - 12:18:29 10° WSW 12:37:29 51° S 12:51:47 10° ESE daylight
18 Oct - 14:36:42 10° W 14:52:36 37° SSW 15:03:31 10° SSE daylight
18 Oct - 16:59:11 10° WSW 17:04:58 13° SW 17:09:50 10° SSW daylight
19 Oct - 06:54:02 10° S 07:04:51 19° SE 07:16:46 10° E daylight
19 Oct - 09:02:45 10° SW 09:19:30 40° SSE 09:36:27 10° E daylight
19 Oct - 11:16:55 10° WSW 11:35:57 52° S 11:51:49 10° ESE daylight
19 Oct - 13:34:09 10° W 13:51:58 44° SSW 14:04:42 10° SE daylight
19 Oct - 15:54:12 10° W 16:05:30 22° SW 16:13:56 10° S daylight
20 Oct - 05:59:18 10° SE 06:04:40 12° SE 06:10:25 10° ESE visible
20 Oct - 08:03:20 10° SSW 08:18:17 34° SSE 08:34:43 10° E daylight
20 Oct - 10:15:54 10° WSW 10:34:17 50° S 10:51:22 10° ESE daylight
20 Oct - 12:32:00 10° WSW 12:50:52 49° SSW 13:05:20 10° SE daylight
20 Oct - 14:50:43 10° W 15:05:34 31° SW 15:16:17 10° SSE daylight
21 Oct - 07:04:48 10° S 07:17:29 26° SE 07:32:11 10° E daylight
21 Oct - 09:15:30 10° SW 09:32:38 46° SSE 09:50:24 10° E daylight
21 Oct - 11:30:21 10° WSW 11:49:22 52° S 12:05:29 10° ESE daylight
21 Oct - 13:47:56 10° W 14:05:06 39° SSW 14:17:48 10° SE daylight
21 Oct - 16:09:46 10° W 16:18:07 16° SW 16:24:58 10° SSW daylight
22 Oct - 06:07:31 10° S 06:17:08 19° SE 06:28:21 10° E visible
22 Oct - 08:15:44 10° SW 08:31:14 41° SSE 08:48:53 10° E daylight
22 Oct - 10:29:12 10° WSW 10:47:38 53° S 11:05:06 10° ESE daylight
22 Oct - 12:45:41 10° W 13:04:07 45° SSW 13:18:40 10° SE daylight
22 Oct - 15:05:13 10° W 15:18:20 24° SW 15:28:25 10° S daylight
